Wind_Speed
8 8 8 7 7 6 5 5 3 2 2 4 1 3 2 2 1 2 2 2 3 4 1 5 7 2 4 4 1 3 3 5 7 8 8 8 7 8 11 10 7 8 10 12 12 9 6 6 6 7 8 8 9 11 12 11 9 8 9 10 9 10 10 10 10 10 9 9 8 7 6 5 4 2
8 8 8 8 7 7 6 5 5 3 2 4 4 4 3 1 0 1 2 2 4 8 9 3 3 2 2 3 3 3 3 6 8 7 6 7 9 11 12 10 6 5 8 11 11 9 6 5 6 6 6 7 9 11 11 11 9 9 9 9 9 10 10 10 10 10 10 9 9 8 7 6 5 3
9 8 8 8 8 8 7 7 8 6 4 5 6 6 3 3 2 1 2 2 4 7 11 10 5 2 0 1 4 3 4 7 7 6 6 6 9 12 13 10 6 4 5 8 10 9 6 4 4 5 5 6 8 10 11 11 10 9 9 9 9 9 9 9 9 9 9 9 9 8 8 6 5 4
9 9 8 8 9 8 8 8 8 7 5 5 7 7 4 4 5 4 4 4 6 7 10 11 8 6 5 4 3 3 6 8 6 6 7 6 10 13 12 10 7 4 4 6 8 9 7 5 3 3 4 5 7 9 11 12 11 9 9 8 9 9 9 9 9 9 9 8 8 8 8 6 5 4
8 9 9 9 9 9 9 8 8 8 8 8 8 8 7 7 8 8 8 8 8 9 9 8 9 9 8 7 5 5 6 6 6 8 8 9 13 13 10 9 8 7 4 4 6 8 8 6 3 3 3 4 6 8 10 12 12 10 9 8 8 8 9 9 9 9 8 8 8 7 7 6 5 4
8 8 9 9 10 10 10 10 9 9 10 11 12 11 10 9 10 12 12 10 8 9 9 9 9 9 8 8 7 6 6 8 9 10 8 8 10 10 8 9 10 9 6 4 5 7 8 7 4 3 3 4 5 6 8 10 11 10 9 8 8 8 8 9 9 9 8 8 8 7 6 5 4 3
10 9 9 9 9 10 11 11 10 10 11 11 11 12 14 14 13 13 13 12 10 9 10 10 10 10 10 9 7 7 9 10 10 10 9 8 8 8 8 10 11 10 8 6 5 6 7 7 5 4 4 4 5 5 6 8 10 11 9 8 8 8 8 8 8 8 8 8 8 7 6 5 4 3
11 11 11 10 10 10 10 11 10 11 11 12 11 10 10 11 11 10 10 10 10 10 11 11 11 11 11 11 10 10 11 11 10 11 11 9 8 8 8 10 10 9 8 7 6 6 7 7 6 5 5 5 5 6 6 7 9 10 10 8 8 7 8 8 8 8 8 8 8 7 7 6 5 4
13 13 12 12 11 11 11 11 11 12 12 12 12 11 10 10 10 10 10 10 10 11 12 13 12 12 12 12 12 12 11 11 10 10 10 10 10 10 8 8 9 8 9 10 9 8 8 7 6 6 6 6 5 6 6 6 7 9 10 9 8 7 7 8 7 7 7 8 8 7 7 6 5 4
14 14 14 13 13 13 13 13 13 13 13 13 13 13 12 12 11 12 13 14 14 13 13 14 14 13 13 13 13 12 12 12 12 11 11 11 12 11 9 7 8 10 11 12 10 10 11 10 8 7 7 7 5 5 7 7 6 9 10 9 8 7 7 7 7 7 7 7 7 7 7 7 6 5
15 15 15 15 15 15 16 15 15 14 14 14 14 14 14 13 13 13 13 14 14 14 14 14 14 15 15 14 15 13 11 12 12 11 12 13 12 9 7 7 8 11 11 11 11 12 13 12 11 9 8 8 7 5 7 7 6 8 10 9 8 7 7 7 7 7 6 6 7 7 7 6 6 6
16 17 16 16 17 18 18 17 17 16 16 15 15 16 15 15 14 15 15 14 14 14 15 15 14 15 15 14 14 12 11 12 13 13 14 15 13 8 7 8 10 11 11 11 13 14 14 13 13 12 11 11 9 8 7 6 6 7 9 9 9 7 7 7 7 6 6 6 6 6 6 6 6 6
18 18 17 17 18 19 20 20 20 18 17 17 17 16 16 16 16 16 16 16 15 15 14 14 14 14 14 14 14 14 15 16 17 16 14 14 12 10 10 11 10 10 12 13 14 14 13 13 14 14 14 13 11 10 9 7 5 7 9 9 9 8 7 6 6 6 6 5 5 5 5 5 5 6
20 19 19 18 18 19 20 22 22 22 20 19 19 18 17 16 17 18 17 16 16 16 15 14 14 14 15 15 15 16 17 18 18 17 16 17 16 12 10 10 10 11 12 13 14 13 11 12 14 15 15 14 13 12 11 8 6 7 9 9 9 9 7 6 6 6 5 5 5 5 5 5 5 5
21 20 20 20 19 20 20 21 22 23 23 22 22 22 20 19 18 17 17 17 17 17 16 16 15 14 15 16 16 17 16 15 15 14 12 12 12 9 7 8 11 12 12 13 15 15 14 14 15 17 17 16 14 14 13 11 9 9 10 10 9 8 7 6 5 5 5 5 5 6 6 6 5 5
23 23 22 22 21 20 21 22 23 24 24 24 24 25 25 25 23 21 20 19 18 18 17 17 17 17 17 17 17 16 15 14 14 12 11 9 8 9 9 11 14 15 14 14 16 18 19 16 16 19 20 19 16 15 15 14 13 12 12 11 9 8 7 6 4 4 4 5 5 6 6 6 6 5
26 25 25 24 23 22 22 22 24 26 27 27 27 28 28 28 28 28 27 26 24 22 20 19 19 19 18 18 19 18 17 16 15 14 14 14 14 13 13 15 18 18 16 15 16 19 21 18 16 18 19 19 20 18 17 17 17 16 14 12 11 8 7 6 4 3 4 4 4 6 6 6 5 5
27 27 27 27 27 26 25 24 23 24 27 28 29 29 30 30 29 29 30 30 31 30 29 27 27 26 24 22 22 21 19 18 17 16 16 17 16 17 17 18 19 18 17 17 16 17 22 21 18 19 19 18 20 21 19 19 19 18 15 13 12 9 7 6 5 3 3 3 3 5 6 6 5 4
26 27 27 28 29 29 28 28 26 24 23 25 27 28 29 29 30 30 31 31 32 34 35 36 36 36 33 31 29 27 24 22 22 21 21 21 20 19 19 19 20 20 20 20 18 18 23 23 20 19 18 17 19 20 19 19 20 19 16 14 11 9 7 7 5 3 2 2 3 4 5 5 4 3
29 28 28 27 28 28 29 29 29 27 25 23 24 24 25 25 26 28 29 29 29 31 34 37 38 39 38 37 37 35 32 29 26 23 22 22 22 21 19 19 20 21 20 20 21 22 25 25 23 21 17 15 18 19 19 20 20 19 17 15 12 9 8 8 6 4 3 3 3 4 5 5 4 3
30 30 31 30 29 29 29 28 28 28 28 27 26 24 23 23 23 23 24 24 24 25 27 30 32 33 34 35 36 37 36 34 30 25 21 20 20 20 17 16 18 19 18 18 19 21 21 21 21 21 18 16 17 18 18 20 20 19 18 17 14 11 10 9 7 6 5 5 4 4 5 5 5 4
31 31 31 32 33 33 32 31 29 27 27 29 30 28 25 24 24 23 22 21 22 23 24 26 28 30 30 30 32 33 34 34 32 30 28 25 22 19 18 17 17 18 20 19 18 20 21 18 16 18 16 14 16 18 18 19 20 20 20 19 18 15 12 10 9 8 7 6 6 5 5 6 6 6
30 31 31 32 33 35 35 35 33 30 28 28 30 29 27 26 27 26 24 23 23 23 23 25 27 30 31 31 31 31 31 32 32 32 33 31 27 23 22 21 17 13 17 20 18 19 22 21 18 18 14 10 11 16 20 20 20 22 22 20 19 17 14 12 11 11 9 8 7 7 6 6 7 7
27 28 30 32 33 35 36 37 37 35 33 32 31 29 28 28 29 27 24 24 25 24 24 23 24 26 28 30 33 33 32 32 32 32 34 33 31 28 27 26 21 17 20 23 19 18 21 19 17 18 15 10 8 12 19 22 22 22 22 22 20 18 16 15 14 13 11 9 9 9 8 7 8 9
27 27 27 29 31 33 35 36 37 38 38 37 35 33 33 34 32 27 24 24 24 23 24 22 21 21 23 26 30 31 32 33 33 33 33 34 35 34 32 30 26 24 28 29 23 21 23 22 20 20 18 16 13 10 14 19 22 22 23 22 21 20 19 17 16 15 13 12 11 10 10 9 9 10
27 27 27 28 28 30 31 33 34 36 38 39 40 39 39 39 36 31 28 27 25 24 23 22 20 19 19 21 25 27 28 29 29 30 31 31 33 34 35 35 32 30 32 32 26 23 23 22 21 21 18 17 17 13 10 14 18 21 21 22 22 21 20 18 18 17 15 14 13 12 12 11 10 11
26 26 25 26 28 28 29 30 31 32 34 37 39 40 40 40 39 36 33 30 28 27 25 24 24 23 21 21 22 23 25 25 26 27 28 29 30 31 32 34 36 36 36 35 30 28 26 23 21 20 19 16 15 13 11 11 13 17 22 24 23 22 20 19 19 19 17 15 15 14 14 14 12 12
23 21 20 22 24 26 27 27 28 30 32 34 35 36 37 37 38 39 37 34 31 28 26 26 26 27 26 26 25 24 24 24 24 25 27 28 30 31 32 34 35 36 36 35 34 32 30 28 27 26 24 22 18 15 14 14 13 15 20 23 23 23 22 20 21 21 19 17 17 18 18 17 16 14
27 22 21 21 21 23 24 25 25 27 30 33 35 35 35 35 37 39 39 36 32 28 28 28 28 29 30 31 31 31 28 26 25 25 26 27 28 29 31 33 35 36 36 36 36 34 32 31 30 29 27 26 24 21 20 19 17 16 17 21 23 24 25 24 24 24 22 20 20 20 20 19 18 17
36 33 30 26 23 23 24 25 27 27 27 29 32 35 36 37 38 39 38 36 33 31 31 30 30 31 31 30 31 32 32 32 32 30 29 29 29 28 27 29 32 34 34 34 34 34 33 32 32 31 29 27 26 26 24 22 20 18 18 22 23 21 22 25 25 24 24 23 22 21 20 19 19 19
31 35 36 35 33 31 30 31 32 32 31 30 30 32 35 38 40 40 38 37 35 34 33 32 31 31 29 28 29 30 31 33 35 34 32 31 30 29 26 26 28 30 31 33 33 33 32 32 31 31 31 29 28 28 27 25 23 21 20 22 24 21 21 25 27 26 25 25 25 23 21 19 20 20
17 23 29 33 34 34 35 37 38 36 35 35 34 34 35 36 37 38 38 37 36 35 34 31 30 28 27 28 29 29 30 32 32 32 33 33 32 30 28 25 25 26 27 29 31 31 32 32 32 32 32 31 30 29 27 25 26 25 22 22 25 25 23 25 28 29 28 27 27 27 24 22 22 23
14 18 23 26 25 25 28 33 35 35 35 34 33 35 36 36 36 37 38 38 38 37 35 32 30 28 28 29 30 30 31 32 31 30 31 32 32 31 29 28 28 27 27 27 29 30 30 31 32 32 33 33 33 31 27 25 26 27 25 23 24 26 25 25 28 30 30 30 29 28 27 26 27 27
20 22 22 22 19 18 21 25 28 31 32 32 31 30 31 33 34 36 37 39 39 37 34 33 32 30 29 29 30 30 31 32 31 30 30 31 31 30 30 30 30 30 30 28 28 29 29 29 31 31 32 34 35 34 33 30 28 28 27 25 24 26 26 27 28 30 32 33 32 29 28 29 30 30
27 26 23 22 20 19 21 24 26 27 28 29 29 27 27 28 31 32 33 36 37 36 34 33 32 31 30 30 30 31 31 31 30 30 30 31 31 31 31 31 31 31 30 30 29 29 28 28 29 28 27 27 28 29 34 37 34 30 27 26 26 27 26 27 28 30 32 33 33 30 28 28 30 31
30 28 25 25 25 24 26 28 29 27 27 27 27 26 26 26 28 29 31 32 33 34 34 33 31 29 30 31 32 32 31 30 29 29 30 30 30 31 32 32 32 31 31 31 30 29 28 28 28 25 20 16 14 15 24 35 38 34 29 28 28 29 27 26 28 30 32 33 34 33 30 28 28 31
31 29 27 28 29 29 30 32 31 29 29 29 28 28 28 27 25 26 29 32 33 33 32 31 30 30 30 32 32 31 31 31 31 30 30 30 30 30 30 31 31 31 31 32 32 31 29 28 28 25 18 11 7 9 16 26 32 33 33 33 32 31 28 26 27 30 33 35 36 37 35 31 28 28
31 29 29 30 31 31 32 32 30 28 28 29 29 29 28 26 24 23 24 27 31 34 34 31 30 30 30 31 31 30 30 30 31 31 31 31 30 29 29 29 28 29 31 32 32 31 30 28 27 27 21 12 7 9 13 18 23 29 33 35 35 31 28 28 31 32 33 35 37 38 37 34 30 27
31 31 29 30 31 31 31 32 30 28 27 27 28 27 26 25 25 24 24 25 27 29 31 32 32 32 31 30 30 30 30 30 29 29 30 31 31 31 30 29 28 28 28 29 29 30 30 30 29 29 27 23 20 21 22 21 23 26 28 31 34 33 30 31 33 33 32 33 34 33 32 31 30 26
29 32 32 31 32 32 32 31 30 27 26 27 27 27 27 25 22 22 25 30 31 29 28 31 33 33 32 32 32 31 30 31 31 31 31 31 31 31 31 30 29 28 26 26 26 26 28 31 33 34 35 35 35 35 31 25 22 24 25 27 31 34 34 35 34 32 32 32 31 29 27 25 25 22
25 30 32 31 31 32 33 31 29 27 26 27 28 29 28 25 22 24 32 37 36 32 30 31 32 33 34 35 35 34 32 31 31 31 31 31 31 32 33 32 30 27 25 25 26 27 29 33 35 36 38 39 35 29 22 16 17 23 28 29 29 31 34 37 36 35 33 31 29 27 25 23 21 20
25 30 33 31 29 30 31 30 28 27 25 26 27 26 24 22 23 30 37 40 38 34 32 30 30 31 33 34 35 35 34 33 32 30 30 29 29 30 31 31 30 29 27 26 28 31 31 31 31 31 33 34 30 22 16 16 20 25 28 28 29 29 29 33 37 37 33 30 31 30 26 22 18 17
25 28 33 32 29 29 30 30 29 27 26 26 23 18 13 12 18 27 32 33 33 34 34 33 31 29 30 32 33 33 33 33 32 30 29 29 28 28 29 30 31 31 30 30 31 32 31 29 29 28 28 29 29 25 23 25 28 28 25 24 25 25 23 28 36 37 31 28 32 35 33 28 21 17
24 25 28 29 28 28 29 30 29 27 26 25 21 15 10 11 19 27 30 28 28 31 33 33 32 30 29 28 26 25 25 25 25 24 24 26 27 27 29 31 31 30 30 31 31 31 31 30 29 27 27 28 29 29 27 27 28 27 24 20 18 17 19 25 31 31 25 23 26 31 33 32 27 21
25 24 25 26 25 24 23 23 22 21 20 19 16 12 13 15 23 34 36 30 28 31 33 31 31 30 29 27 26 27 29 30 29 28 28 28 28 29 32 35 34 33 32 30 28 28 29 28 27 27 28 28 28 29 29 28 26 23 19 15 14 16 20 25 28 27 23 21 22 25 27 30 29 24
Wind_Direction
220 218 222 234 256 266 279 297 311 10 119 167 278 340 54 73 357 310 337 4 327 309 278 137 154 178 25 60 188 244 220 250 297 329 326 300 293 317 324 326 347 9 19 19 14 16 36 53 60 58 48 38 26 19 16 15 17 13 4 360 359 356 352 351 350 350 351 352 0 14 25 34 42 45
219 221 220 216 228 244 255 263 253 251 234 197 207 250 241 204 315 338 340 338 335 335 340 4 155 152 55 44 338 285 263 295 304 323 326 288 285 304 308 310 327 356 16 25 22 19 28 45 56 51 39 31 24 21 21 21 22 16 9 7 4 0 358 357 356 355 354 352 355 4 16 29 41 47
213 218 222 213 214 225 232 241 243 242 239 206 208 239 235 163 183 295 304 303 327 329 327 336 351 356 121 10 330 300 301 305 289 308 324 274 275 298 298 297 306 328 1 21 26 26 26 34 51 49 33 26 21 22 24 26 26 22 16 14 10 5 5 3 1 359 357 354 352 355 3 14 32 46
206 209 218 216 217 227 234 241 246 248 243 213 213 236 237 197 221 246 239 262 293 296 303 321 328 319 329 345 327 286 299 300 284 315 330 284 282 294 290 288 292 297 329 6 22 26 28 30 43 42 27 22 18 20 26 28 28 26 22 19 14 9 7 8 5 1 359 357 353 353 356 0 16 41
209 206 212 217 220 225 231 236 241 244 241 228 227 240 241 221 221 229 228 239 267 282 290 298 296 300 316 314 292 284 299 297 289 306 312 298 290 280 271 286 287 273 290 338 6 18 23 26 34 35 23 20 15 16 25 29 28 28 27 22 16 11 7 7 7 3 2 2 1 359 357 355 2 31
223 216 214 218 222 223 227 232 234 240 238 226 220 226 232 230 230 231 227 226 246 270 279 285 286 287 292 291 285 288 295 292 290 295 302 310 299 275 266 291 287 268 271 303 338 360 13 18 24 23 15 15 13 11 19 28 29 27 26 24 19 13 9 6 4 5 4 4 7 9 8 3 359 15
226 227 223 223 225 225 227 228 230 239 246 242 231 222 218 220 229 233 228 225 234 254 269 278 284 288 292 297 297 295 295 293 291 294 297 303 305 292 282 286 283 272 269 282 312 334 351 7 13 11 8 7 5 6 13 24 28 27 25 25 20 15 10 6 3 4 6 7 10 14 16 15 9 10
225 227 229 228 228 231 231 227 229 237 245 254 259 253 235 225 231 236 233 232 236 246 262 273 277 283 289 293 291 289 290 289 288 292 292 288 292 297 290 284 282 272 269 283 299 310 324 342 353 356 358 356 355 357 2 14 23 25 25 23 20 16 12 9 6 5 7 9 11 14 18 22 20 12
227 229 231 230 229 233 235 232 232 237 240 245 254 260 259 253 252 251 251 256 258 253 258 267 273 277 280 283 286 286 283 282 284 288 289 288 290 288 279 276 281 275 275 285 290 292 302 313 326 334 341 343 346 350 354 2 12 19 22 21 16 13 11 11 11 9 11 11 12 15 17 21 23 17
230 230 231 233 232 231 234 234 233 234 235 239 244 249 251 250 250 248 246 249 254 256 259 265 271 274 275 276 280 281 278 276 278 282 285 291 295 288 268 260 279 288 286 286 286 287 291 296 301 305 314 322 325 333 344 349 357 7 15 18 14 10 9 12 13 14 16 16 15 17 17 18 22 21
231 232 232 233 234 232 232 234 236 236 235 235 238 243 246 247 246 247 246 243 243 248 256 261 265 268 271 272 273 275 276 273 272 273 279 287 293 286 262 253 272 281 280 278 279 283 283 281 281 283 287 297 299 304 322 331 342 354 4 11 10 5 6 10 11 14 19 20 21 21 19 17 18 20
231 232 233 232 232 233 232 231 232 234 236 236 236 239 242 244 245 247 248 250 249 246 248 253 259 264 268 270 272 276 280 276 271 268 269 273 273 270 270 277 281 275 270 269 269 272 270 265 268 274 276 281 283 284 297 310 322 339 352 2 6 2 2 5 6 9 15 19 22 23 20 17 15 15
232 233 235 235 235 233 232 231 231 231 232 233 235 238 240 239 241 243 245 248 253 255 253 254 258 263 267 269 269 267 265 265 264 261 258 257 257 266 277 281 282 277 276 276 268 264 264 264 268 273 271 269 270 272 282 291 306 329 341 350 359 1 356 355 360 4 8 11 15 18 16 13 12 10
235 235 236 239 241 240 238 236 234 233 232 232 233 236 237 235 236 238 240 242 247 254 256 257 258 260 263 265 264 261 260 261 259 255 252 249 249 256 265 269 276 280 283 283 274 268 270 270 267 267 266 265 263 265 273 276 284 317 332 336 347 354 348 343 353 358 360 2 1 2 3 4 4 5
239 240 242 243 245 246 246 244 241 238 237 236 237 237 236 234 234 235 236 238 241 246 251 254 254 255 258 261 263 265 268 271 269 267 264 252 242 241 251 265 275 280 280 279 275 273 275 270 264 264 266 265 262 263 267 267 268 290 314 324 331 338 334 331 342 354 356 354 349 348 350 352 355 359
240 242 245 247 247 248 248 246 243 240 240 241 243 244 243 241 239 237 236 237 237 238 243 247 249 250 255 260 262 263 268 274 276 277 277 272 266 266 263 258 265 274 278 275 273 276 280 276 268 268 266 259 257 260 263 263 264 272 290 304 310 317 323 321 326 345 353 350 342 339 338 339 346 356
236 239 242 244 247 248 250 249 244 239 239 242 244 247 249 248 247 244 242 242 242 241 241 245 248 247 250 255 258 258 262 268 274 274 273 274 274 271 266 261 265 271 272 270 271 278 283 281 274 274 270 257 250 254 258 261 261 261 270 286 294 298 308 313 313 329 347 347 335 328 330 331 335 349
233 235 238 240 243 246 248 251 251 244 239 239 241 244 246 249 251 251 249 247 246 244 243 244 248 248 247 249 252 253 254 258 263 266 266 268 269 269 269 269 270 268 264 263 266 272 279 280 273 273 274 259 250 254 257 258 257 255 259 273 284 286 291 298 302 308 325 333 326 316 318 320 322 338
236 236 236 237 240 243 244 246 249 250 245 240 239 240 243 247 250 252 253 252 250 247 246 245 247 250 251 250 250 252 252 254 258 262 264 266 268 270 270 269 269 266 262 261 259 259 270 276 270 267 268 256 248 251 252 250 250 250 256 268 274 274 275 282 288 290 287 299 304 301 303 304 304 313
241 242 241 240 240 241 242 243 244 246 247 243 238 237 239 244 249 253 257 259 258 255 252 251 252 255 257 256 255 255 255 255 258 262 265 264 260 261 265 265 265 265 265 266 259 251 257 264 260 259 262 253 245 246 244 244 245 246 251 261 265 263 263 266 272 270 256 258 272 278 283 287 283 278
242 244 244 244 244 243 243 244 244 243 243 244 243 241 240 241 245 251 257 262 264 264 260 258 258 259 261 261 260 259 258 257 257 258 259 257 251 250 254 255 257 260 262 266 263 257 260 263 254 252 256 252 244 243 242 243 245 244 246 252 256 256 253 255 263 261 246 240 247 256 264 266 259 251
241 244 245 244 244 245 245 245 245 245 243 242 243 244 244 244 244 247 252 257 263 265 264 261 259 258 259 260 260 260 259 257 255 253 253 253 250 248 249 251 257 262 262 263 265 269 275 275 262 257 257 246 237 240 243 244 243 242 243 245 249 250 246 247 255 256 246 236 235 243 250 250 247 244
243 245 246 245 244 245 245 245 245 245 244 244 244 244 244 245 246 248 250 253 257 261 262 260 256 254 255 256 256 257 257 256 254 251 251 251 250 250 252 256 260 265 264 263 261 263 266 266 263 261 255 237 226 230 235 239 241 241 242 242 245 246 243 243 250 254 247 236 233 238 241 240 237 232
245 246 247 247 247 246 245 245 245 244 244 245 245 244 243 244 246 248 249 251 254 258 262 264 261 258 256 254 252 252 252 253 252 251 250 250 248 248 250 253 254 255 261 263 261 263 266 267 267 263 254 245 233 216 218 227 234 236 238 240 242 242 241 242 246 250 248 239 233 235 238 238 229 220
244 246 246 247 248 248 247 247 246 245 244 244 244 243 243 245 247 247 246 248 252 255 260 265 266 262 256 251 249 249 250 250 250 251 251 250 248 246 246 248 249 250 257 261 259 260 264 265 264 263 257 253 256 239 215 219 228 232 235 240 241 241 242 244 244 244 244 240 234 232 234 236 230 220
241 245 247 246 248 250 250 248 247 246 245 244 244 244 246 248 249 247 246 247 250 253 258 262 264 262 253 243 240 240 242 245 247 249 250 251 251 248 246 246 245 247 255 261 257 253 260 266 263 259 255 252 257 255 225 214 226 233 234 237 241 243 244 243 240 238 238 237 233 229 229 232 231 226
239 242 247 249 249 250 252 253 250 248 246 244 244 246 248 249 249 248 247 247 249 252 255 257 258 258 254 247 240 235 235 238 241 242 245 248 251 251 250 248 247 248 254 260 257 251 255 264 265 262 260 261 262 257 241 230 234 233 230 233 239 243 241 236 234 235 237 236 230 225 224 226 226 226
251 253 259 263 260 253 252 255 256 253 249 246 246 246 247 248 249 248 247 247 248 249 251 252 253 253 252 251 249 245 242 242 243 244 245 246 248 251 254 253 251 250 252 256 255 251 251 256 260 262 263 263 262 258 256 257 252 238 230 226 228 235 239 236 232 233 234 232 227 224 224 223 222 222
253 260 264 270 277 273 264 260 260 258 253 249 247 247 246 246 245 245 245 245 246 246 247 248 249 251 250 249 249 249 249 250 250 250 250 250 251 253 256 255 253 252 251 252 252 251 250 250 253 256 258 257 255 254 255 257 255 245 230 219 218 227 234 231 228 229 229 226 225 227 228 224 221 221
248 251 252 254 266 280 284 278 270 264 260 256 252 248 245 243 242 241 241 241 241 241 242 243 244 246 249 250 250 249 248 249 250 249 251 253 254 254 254 251 249 250 251 251 250 249 249 249 249 250 251 251 250 250 251 253 253 249 238 225 220 222 225 224 223 224 222 220 224 229 230 227 227 227
256 255 256 256 258 265 276 280 276 269 266 265 260 253 247 243 240 239 239 238 238 239 240 242 243 244 245 247 248 247 245 245 246 246 247 248 249 249 250 247 245 247 249 251 249 247 246 247 247 246 246 246 247 249 249 249 249 249 245 233 224 221 222 219 216 216 218 219 221 225 226 226 227 228
268 259 258 259 261 263 267 269 269 266 263 262 259 255 250 245 242 240 239 238 238 238 239 241 243 243 242 242 242 242 242 242 243 242 241 242 243 244 246 246 246 245 246 247 247 245 245 245 245 244 243 242 244 246 246 245 245 247 248 241 231 226 224 218 213 213 217 217 216 219 222 223 223 223
271 260 256 257 260 263 263 261 259 258 257 257 254 251 248 246 243 241 237 235 235 237 237 238 239 239 239 239 240 240 240 241 241 239 237 237 238 238 239 241 244 245 244 244 243 242 243 244 246 246 245 244 245 244 243 242 243 244 244 243 236 228 224 223 219 215 213 213 214 216 219 221 221 221
267 261 260 260 261 260 258 257 255 253 253 252 250 247 244 240 238 238 237 235 235 236 235 235 237 239 240 241 240 239 239 240 240 238 236 235 233 231 231 235 239 241 242 243 242 241 241 242 245 246 247 246 245 244 242 241 243 243 242 240 237 231 226 225 224 218 213 213 214 213 215 219 222 223
264 257 254 255 255 251 251 255 256 254 252 251 248 245 243 237 233 232 233 234 234 235 234 235 235 236 238 241 242 240 240 241 240 238 236 234 230 228 228 231 235 237 237 239 240 239 239 238 237 238 238 238 240 242 242 239 239 241 239 236 235 235 230 225 222 218 214 213 212 211 214 218 220 221
259 253 246 245 246 244 246 251 252 252 254 255 251 247 245 242 236 231 231 234 233 231 229 229 229 231 234 238 241 242 242 241 240 238 235 233 229 228 229 231 234 235 235 236 238 237 237 234 230 228 228 227 229 238 241 239 238 237 235 235 236 236 232 226 221 218 214 211 209 210 214 218 220 220
257 251 244 243 243 243 246 250 251 249 250 253 254 250 248 247 243 237 237 237 233 227 224 221 221 225 230 234 238 241 241 241 241 240 237 235 232 230 230 232 234 234 235 236 237 236 234 232 227 224 224 223 223 236 243 244 242 238 235 234 236 236 231 223 215 213 214 214 213 213 214 217 220 222
260 254 247 246 247 246 247 250 251 249 247 249 252 253 252 253 253 253 254 248 234 224 221 220 220 223 226 229 232 235 237 239 240 239 238 237 235 234 234 234 235 234 235 237 238 235 233 232 228 224 223 221 225 238 242 241 239 238 235 232 231 232 230 222 214 212 214 215 215 216 217 218 220 223
264 259 254 253 254 253 251 251 250 246 245 247 250 253 255 255 255 258 264 265 252 234 225 224 225 226 226 227 229 231 232 234 236 237 237 237 236 237 237 237 237 236 236 238 237 234 232 231 229 226 224 224 228 234 238 239 240 242 241 236 231 229 228 224 219 216 215 215 215 215 217 220 223 224
267 265 262 260 260 260 259 256 254 250 248 248 250 253 255 255 256 257 259 261 261 254 241 233 230 228 228 229 230 231 232 232 232 234 235 236 236 237 238 238 239 239 238 239 239 233 227 227 228 229 229 232 236 240 243 246 249 247 244 240 234 230 228 227 224 219 217 217 213 209 209 213 216 216
267 268 267 265 263 264 264 262 259 257 253 251 250 252 254 253 254 255 253 251 252 253 248 241 233 229 228 230 231 232 234 234 234 234 233 234 236 237 237 238 239 239 238 240 241 237 233 232 232 233 233 235 237 239 241 244 245 242 240 241 238 232 229 229 230 227 223 217 207 202 202 205 207 206
266 267 270 269 267 266 267 264 261 259 258 256 251 246 243 243 246 250 250 249 249 250 250 246 239 233 231 231 231 232 234 236 237 237 235 235 237 238 238 238 238 238 238 239 240 241 241 240 238 236 234 231 228 227 230 235 239 240 240 241 241 238 231 227 230 233 231 220 210 203 197 192 193 199
266 266 269 271 270 270 271 271 268 264 261 258 251 238 228 240 257 260 257 252 251 251 251 250 248 244 240 238 236 235 236 238 240 240 241 241 242 244 244 242 240 239 239 241 244 246 245 242 238 234 229 223 219 221 228 233 236 238 238 236 237 238 231 224 226 230 230 224 218 214 206 197 196 203
268 267 269 271 271 272 273 273 272 268 262 260 259 255 252 261 268 268 264 258 254 254 254 253 254 254 252 251 252 255 259 262 264 264 262 259 260 261 261 258 253 247 242 241 243 243 242 240 236 230 226 222 221 223 229 234 236 239 238 233 229 228 224 221 221 220 217 213 213 213 210 206 202 202
276 276 275 274 275 277 277 278 279 280 279 281 282 264 241 243 261 268 268 264 258 256 255 255 256 258 260 261 265 267 266 266 266 266 263 262 265 268 269 268 265 259 252 248 244 240 238 238 235 229 227 228 228 229 232 236 240 243 239 230 223 222 225 226 221 209 196 190 193 198 203 204 200 195
Height
865 865 866 866 867 867 866 866 866 866 867 868 869 869 868 869 871 872 871 868 865 865 865 865 866 867 866 866 866 866 866 866 866 866 865 864 864 863 863 863 862 862 861 860 858 857 856 856 855 854 854 853 852 851 850 848 847 846 844 843 841 839 838 837 836 835 834 833 833 832 832 832 832 832
864 865 865 866 866 867 867 867 867 867 868 868 868 869 868 868 869 870 872 870 867 866 865 865 866 866 865 866 866 866 866 866 866 865 865 864 863 863 863 862 862 861 861 860 859 858 857 856 856 855 854 854 853 852 851 849 848 846 845 843 841 840 839 837 836 835 834 833 832 832 831 831 831 831
864 864 865 865 865 866 866 867 867 867 867 868 868 868 868 868 869 868 870 870 868 867 866 866 866 866 865 865 866 866 866 866 865 865 864 864 863 863 862 861 861 861 860 860 859 858 857 857 856 855 855 854 853 852 851 850 849 847 846 844 842 841 839 838 837 835 834 833 832 831 831 831 831 831
863 863 864 865 865 866 866 866 866 866 867 867 868 868 868 868 869 869 869 870 868 867 867 867 866 866 866 865 865 865 865 865 865 864 864 863 862 862 861 860 860 860 860 859 859 858 857 857 856 855 855 854 854 853 852 851 849 848 846 844 843 841 840 839 837 836 835 833 832 831 830 830 830 830
862 863 863 864 864 865 865 865 866 866 866 867 867 868 867 867 868 868 868 868 868 867 867 867 866 866 866 865 865 865 865 865 864 864 863 863 861 860 860 859 859 859 859 859 858 858 857 857 856 855 855 854 854 853 852 851 850 848 847 845 843 842 840 839 838 836 835 834 833 832 831 830 830 830
861 862 862 863 864 864 864 864 865 865 865 866 866 866 866 867 867 867 867 867 867 867 867 866 866 865 865 865 864 864 864 864 864 863 863 862 860 859 859 859 858 858 858 858 858 857 857 856 856 855 855 854 854 853 852 851 850 848 847 845 844 842 841 840 838 837 835 834 833 832 831 830 830 830
860 861 861 862 862 863 863 863 864 864 864 864 864 864 865 865 865 866 866 866 866 866 866 865 865 865 864 864 863 863 863 863 863 862 862 861 861 860 858 858 858 857 857 857 857 857 856 856 856 855 855 854 853 853 852 851 850 848 847 845 844 843 841 840 838 837 836 835 833 833 832 831 830 830
859 859 860 861 861 861 862 862 863 863 863 863 863 863 863 863 864 864 864 865 865 865 865 864 864 864 863 863 863 863 862 862 862 861 861 860 860 860 859 857 857 857 857 857 857 856 856 855 855 854 854 853 853 853 852 851 850 848 847 845 844 843 841 840 839 837 836 835 834 833 832 831 830 830
857 858 858 859 859 860 860 861 861 862 862 862 862 862 862 862 863 863 863 864 864 864 864 863 863 863 863 862 862 861 861 861 861 860 860 859 859 859 859 857 857 857 856 856 856 855 855 855 854 854 853 853 852 852 851 851 850 848 847 845 844 843 842 840 839 837 836 835 834 833 832 832 831 830
856 856 857 857 858 858 859 859 859 860 860 861 861 861 861 862 862 862 862 863 863 863 863 862 862 862 862 861 860 860 860 859 859 859 858 858 858 857 857 857 856 856 856 855 855 854 854 854 853 853 852 852 851 851 850 850 849 848 847 846 844 843 842 840 839 838 836 835 834 834 833 832 831 830
854 855 855 856 856 856 857 857 858 858 859 859 860 860 860 860 861 861 861 861 861 862 861 861 861 861 860 860 859 859 858 858 858 857 857 856 856 856 856 856 855 854 854 854 853 853 852 852 852 851 851 850 850 850 849 849 848 848 847 846 845 843 842 841 839 838 837 836 835 834 833 832 831 830
852 853 853 853 854 854 854 855 856 856 857 857 857 858 859 859 859 859 860 860 860 860 860 860 860 859 859 858 858 857 857 857 856 856 856 855 854 854 854 854 854 853 852 851 851 851 850 850 850 849 849 849 848 848 848 848 847 847 846 846 845 843 842 841 839 838 837 836 835 834 833 832 831 830
850 850 851 851 851 851 851 852 853 854 855 855 855 856 856 857 857 858 858 858 858 858 858 858 858 858 857 857 857 856 856 855 854 854 854 853 853 853 853 853 853 853 852 851 849 848 848 848 848 848 847 847 847 846 846 846 846 845 845 845 844 843 842 841 840 838 837 836 835 834 833 832 831 830
848 848 849 848 849 849 849 849 849 850 852 852 853 854 854 854 855 855 856 856 857 857 857 857 857 856 856 856 855 854 853 853 852 852 852 851 851 851 851 851 851 851 851 850 848 847 846 845 845 845 845 845 845 844 844 844 844 843 843 843 843 842 842 841 840 838 837 836 835 834 833 832 831 831
846 846 846 847 847 847 847 847 847 848 849 849 850 851 852 852 853 853 853 854 854 855 855 855 855 854 854 854 853 853 852 851 851 850 850 850 849 850 849 849 849 849 849 848 847 846 845 844 843 842 842 842 842 842 841 842 842 841 841 841 841 841 841 840 839 838 837 836 835 834 834 832 832 831
843 843 844 844 845 845 845 845 845 845 846 846 847 848 849 850 850 850 851 851 852 852 852 852 852 852 852 851 851 851 850 850 849 849 848 848 848 848 847 847 846 846 847 846 845 844 843 843 842 840 839 839 839 839 839 839 840 839 839 840 840 840 840 839 838 837 836 836 835 834 834 833 832 831
840 840 841 841 841 842 842 842 842 842 842 843 843 844 845 846 847 847 848 849 849 850 850 849 849 849 849 849 849 849 849 848 848 847 847 847 847 846 846 845 844 844 844 844 843 841 840 840 840 838 837 836 835 836 836 836 837 837 837 838 838 838 838 838 837 837 836 835 835 834 834 833 832 831
836 837 837 837 837 838 839 839 839 839 839 839 840 841 841 842 843 844 844 845 846 846 847 846 845 846 847 846 846 846 847 846 846 845 845 845 845 844 844 843 842 842 842 842 841 839 837 837 837 836 835 834 833 833 833 833 834 834 835 836 836 836 836 836 836 836 835 835 834 834 833 833 832 831
832 833 833 833 833 834 834 835 836 837 837 837 837 837 838 838 839 839 840 841 841 842 842 842 841 841 842 843 843 843 844 844 844 843 843 843 843 842 841 840 840 839 839 839 839 837 835 834 834 832 832 832 831 831 831 831 831 832 833 833 834 834 834 834 834 834 834 833 833 833 832 832 832 831
828 829 829 829 829 829 830 831 832 833 834 834 834 834 834 835 835 835 836 836 837 837 837 837 837 837 838 839 839 840 840 841 841 841 841 841 841 840 838 838 837 836 836 836 836 833 831 831 831 830 829 829 829 829 829 829 829 830 831 831 831 831 832 832 832 832 832 832 832 831 831 831 831 831
824 825 825 826 826 826 826 827 828 829 831 831 831 831 831 832 832 831 832 832 832 833 833 833 833 833 834 834 835 836 837 837 839 839 838 838 838 837 836 835 834 834 833 834 833 831 829 828 828 827 827 826 826 826 826 826 827 828 828 829 829 829 829 830 830 830 830 830 830 830 830 829 829 830
820 821 821 822 823 822 822 823 824 825 827 827 827 828 828 829 828 828 829 829 828 828 828 828 829 829 830 831 831 832 833 834 836 836 835 835 835 835 833 832 832 831 830 831 831 829 827 826 826 825 825 823 822 823 823 824 824 825 825 826 826 826 827 828 828 828 828 828 828 828 828 828 828 828
817 817 818 818 819 818 819 820 821 822 823 823 823 824 825 825 824 824 826 827 826 825 825 824 825 825 826 827 827 828 829 830 832 832 831 832 832 832 831 830 830 829 826 827 828 827 825 824 824 823 823 821 820 820 820 821 821 822 822 823 823 824 825 825 826 826 826 826 827 827 827 826 826 826
814 814 814 814 814 815 816 817 817 818 819 819 820 821 821 820 819 821 823 823 823 823 822 821 821 821 822 823 823 824 826 826 827 827 827 828 829 828 828 827 827 826 823 823 826 825 822 822 821 820 820 819 817 817 817 818 818 819 819 820 821 821 822 823 823 824 824 825 825 825 825 825 825 825
811 811 811 810 810 811 812 813 814 814 815 815 815 816 815 814 815 817 819 819 819 819 818 818 818 818 818 819 819 820 821 822 822 822 823 823 824 824 824 823 823 822 819 820 822 822 820 819 819 818 817 816 815 815 815 815 816 816 817 817 818 818 819 820 820 821 822 822 823 823 824 823 823 823
807 807 808 807 807 807 808 808 809 810 810 811 811 811 810 810 812 813 814 815 815 815 815 815 815 815 815 815 815 816 817 817 818 818 818 818 818 818 818 818 818 817 815 816 818 819 818 816 816 816 815 813 813 813 813 813 813 814 815 815 815 815 816 817 818 818 819 819 820 821 821 821 821 821
803 804 805 805 805 805 804 805 805 806 806 807 806 806 806 807 808 809 810 811 811 811 812 812 812 812 812 812 812 812 812 813 813 813 813 813 813 813 813 813 813 812 811 812 814 815 815 814 813 813 812 811 811 811 810 810 811 811 811 811 812 812 813 814 815 815 816 816 817 818 819 819 819 819
802 802 803 803 804 803 802 802 802 803 803 802 802 802 802 803 804 805 805 806 807 807 808 808 807 808 808 808 808 808 809 809 810 810 809 809 808 808 807 807 807 807 808 809 810 811 811 810 810 810 810 810 809 808 808 808 808 807 807 808 809 809 810 811 811 812 813 814 814 815 815 816 816 817
800 800 800 802 803 802 801 801 800 800 799 799 798 798 798 798 799 800 800 801 802 802 802 802 803 803 803 803 803 804 805 806 806 806 806 806 805 805 804 803 803 803 804 805 805 806 807 806 806 806 807 807 806 805 805 805 805 805 805 805 805 805 806 807 808 808 810 811 811 812 813 813 814 815
796 796 796 797 798 799 800 800 799 797 796 796 795 795 795 794 794 795 795 796 796 796 795 796 796 796 798 799 800 800 801 801 801 801 802 802 802 802 801 800 799 799 800 800 800 801 802 802 802 802 802 802 802 802 801 802 802 802 802 801 802 802 802 803 804 805 806 807 808 809 810 811 812 812
794 794 793 792 792 793 796 798 797 795 793 793 792 791 791 790 789 790 790 790 790 790 789 789 790 790 793 794 795 795 795 794 794 796 797 797 797 798 798 797 795 795 795 795 795 796 796 796 797 797 798 798 797 797 798 798 798 798 798 798 798 798 798 798 800 801 802 803 804 805 807 808 809 809
791 790 789 787 787 788 790 793 794 791 789 788 787 786 785 785 785 785 786 786 785 784 784 785 785 786 788 789 789 789 789 788 788 790 791 791 792 793 794 793 791 791 791 790 790 791 791 791 792 792 793 793 793 793 794 794 793 794 795 794 794 794 794 794 796 797 799 801 801 802 803 804 805 805
786 784 781 780 781 783 785 787 787 786 785 784 782 781 780 780 780 780 781 780 779 779 779 780 780 782 783 783 783 784 783 782 783 785 785 785 786 788 788 787 786 786 786 785 785 786 786 787 787 787 788 788 789 790 790 789 789 789 790 790 790 790 791 791 791 793 795 796 797 798 800 801 801 802
785 781 778 777 777 778 781 782 782 781 780 779 778 777 776 775 775 775 775 774 774 774 775 775 776 777 778 778 778 778 777 777 778 779 779 780 780 781 782 781 779 779 780 780 780 781 782 783 783 783 784 784 784 785 785 784 784 784 785 786 786 786 787 787 788 788 789 791 792 794 796 796 797 798
781 778 776 775 775 776 778 778 778 778 777 775 775 774 773 772 771 770 770 769 770 771 771 771 772 773 774 774 773 773 773 772 773 774 774 774 774 774 774 773 772 773 774 774 774 776 777 778 779 779 779 779 779 778 778 777 778 779 780 782 781 781 782 783 784 785 785 786 788 790 791 792 793 794
775 774 774 772 771 772 773 773 774 775 774 772 771 771 770 768 766 765 765 765 766 766 766 766 767 768 768 768 768 769 769 769 769 769 769 769 768 768 767 766 766 767 768 768 769 771 772 773 774 774 774 775 775 773 770 769 771 773 775 776 776 776 777 779 780 780 781 782 783 785 785 786 787 789
772 771 771 769 767 768 767 767 768 770 769 769 768 767 766 764 763 762 761 761 761 761 760 761 762 761 762 763 763 764 765 764 764 764 763 763 763 762 761 760 760 761 762 762 763 765 766 767 768 769 769 770 772 770 765 764 766 768 769 770 770 770 773 775 775 775 775 776 777 777 778 781 782 784
769 768 768 766 764 763 762 762 763 763 764 764 764 763 762 761 760 760 759 758 757 756 756 756 756 755 756 757 758 759 759 759 759 758 758 758 758 756 756 755 755 756 756 756 757 759 761 762 763 763 764 765 765 764 761 760 760 760 761 763 764 766 768 769 769 769 769 770 770 772 774 776 778 780
765 765 765 763 761 760 759 758 758 758 759 759 760 759 759 758 758 757 757 756 754 753 753 752 751 750 751 751 752 753 753 753 753 753 752 752 752 751 751 750 750 750 751 751 751 753 755 756 757 758 758 757 755 755 755 755 754 754 756 758 760 762 764 763 763 764 765 766 767 769 772 774 776 779
762 761 761 760 758 757 756 755 754 754 754 755 755 755 755 755 755 756 756 753 751 751 750 748 746 746 746 746 747 747 747 747 746 746 746 746 746 745 746 745 745 746 746 745 745 746 747 747 748 749 750 749 748 750 751 752 751 751 751 752 753 755 758 758 758 759 760 761 764 767 769 771 774 776
758 757 756 756 755 754 752 751 751 750 750 750 750 751 750 751 752 752 749 745 744 745 744 742 741 740 740 739 740 740 740 740 740 740 741 741 740 740 740 740 740 741 741 740 739 738 738 738 739 741 742 743 746 748 749 748 746 745 745 746 747 749 751 754 755 755 755 757 761 764 765 768 770 772
754 752 751 751 751 750 749 748 747 747 746 745 745 744 744 744 745 742 737 736 737 739 738 736 736 735 734 733 734 734 734 734 734 735 736 736 736 736 736 736 735 735 734 733 731 731 732 733 735 736 737 739 742 744 743 741 739 739 740 742 743 744 747 750 751 751 751 753 755 757 758 762 764 766
750 748 746 745 745 745 744 743 743 743 743 742 740 739 739 741 740 736 732 732 734 734 733 732 731 730 729 729 729 729 730 730 731 733 734 734 734 733 733 731 730 729 729 728 726 726 728 729 730 731 732 733 735 735 734 733 732 732 734 737 739 741 744 747 747 747 747 748 749 749 750 753 756 757
746 744 742 741 740 740 740 739 739 738 738 738 737 735 736 740 739 733 729 730 731 730 730 730 729 728 727 727 728 730 732 733 735 737 738 738 737 737 736 733 730 728 725 723 722 722 722 723 725 726 726 726 726 726 726 725 726 727 730 734 737 740 742 743 742 742 743 745 747 747 747 749 750 753
743 742 740 739 738 737 737 736 736 735 735 735 734 732 733 736 735 729 725 726 728 727 726 726 726 725 725 725 727 729 731 731 733 734 735 736 736 737 737 735 733 730 726 722 719 717 717 717 719 719 719 719 720 719 719 720 722 724 727 731 734 736 736 737 737 737 739 742 744 745 745 746 748 750